Location: Unspecified
(0.0000°N, 0.0000°E)
Time: 02:14:28
(UTC+00:00)

A-11 Canister half - Visible Passes

Search period start: 23 December 2014 00:00
Search period end: 02 January 2015 00:00
Orbit: 1525 x 1685 km, 47.3° (Epoch: 20 December)

Date Brightness Start Highest point End Pass type
(mag) Time Alt. Az. Time Alt. Az. Time Alt. Az.
23 Dec 11.2 01:22:18 12° E 01:22:18 12° E 01:22:59 10° E visible
23 Dec 8.9 03:20:38 71° SW 03:20:38 71° SW 03:30:12 10° SSE visible
23 Dec 10.7 05:22:34 10° WSW 05:25:59 12° SW 05:29:24 10° SSW visible
24 Dec 9.1 03:00:33 66° S 03:00:33 66° S 03:08:43 10° SE visible
24 Dec 10.6 05:00:06 10° WSW 05:04:23 14° SW 05:08:38 10° SSW visible
25 Dec 9.5 02:40:24 52° SSE 02:40:24 52° SSE 02:47:13 10° SE visible
25 Dec 10.6 04:38:44 12° WSW 04:42:46 15° SW 04:47:42 10° SSW visible
26 Dec 9.9 02:20:13 40° SE 02:20:13 40° SE 02:25:43 10° SE visible
26 Dec 10.5 04:18:32 15° WSW 04:21:10 16° SW 04:26:41 10° S visible
27 Dec 10.3 01:59:59 31° SE 01:59:59 31° SE 02:04:12 10° SE visible
27 Dec 10.4 03:58:18 18° WSW 03:59:34 18° SW 04:05:35 10° S visible
28 Dec 10.7 01:39:42 23° SE 01:39:42 23° SE 01:42:40 10° SE visible
28 Dec 10.4 03:38:00 20° SW 03:38:00 20° SW 03:44:26 10° S visible
29 Dec 10.9 01:19:21 17° SE 01:19:21 17° SE 01:21:07 10° SE visible
29 Dec 10.4 03:17:40 21° SW 03:17:40 21° SW 03:23:14 10° S visible
30 Dec 11.2 00:58:58 12° SE 00:58:58 12° SE 00:59:33 10° SE visible
30 Dec 10.5 02:57:16 21° SSW 02:57:16 21° SSW 03:02:01 10° S visible
31 Dec 10.6 02:36:50 20° SSW 02:36:50 20° SSW 02:40:45 10° S visible
01 Jan 10.7 02:16:20 19° S 02:16:20 19° S 02:19:28 10° S visible
